Hourly Data Report for September 13, 2017

All times are specified in Local Standard Time (LST). Add 1 hour to adjust for Daylight Saving Time where and when it is observed.

KAMLOOPS A
BRITISH COLUMBIA

50°42'09.000" N
120°26'55.000" W
345.30 m
1163781
71887
YKA

Download Data

Hourly Data (September 2017)
Hourly Data Report for September 13, 2017
Temp Definition
°C
Dew Point Temp Definition
°C
Rel Hum Definition
%
Wind Dir Definition
10's deg

Wind Spd Definition
km/h
Visibility Definition
km
Stn Press Definition
kPa
Hmdx Definition


Wind Chill Definition


Weather Definition


TIME
00:00 Legend Double Dagger 14.2 6.9 61 26 14 64.4 97.33     LegendNANA
01:00 Legend Double Dagger 15.0 4.9 51 28 29 64.4 97.34     Mostly Cloudy
02:00 Legend Double Dagger 14.6 4.4 50 29 19 64.4 97.38     LegendNANA
03:00 Legend Double Dagger 14.1 4.4 52 28 26 64.4 97.42     LegendNANA
04:00 Legend Double Dagger 13.7 3.5 50 28 26 64.4 97.49     Mostly Cloudy
05:00 Legend Double Dagger 13.0 3.1 51 28 26 64.4 97.50     LegendNANA
06:00 Legend Double Dagger 12.7 2.4 49 29 32 64.4 97.54     LegendNANA
07:00 Legend Double Dagger 13.2 3.3 51 29 32 64.4 97.58     Mainly Clear
08:00 Legend Double Dagger 14.0 3.6 49 28 29 64.4 97.59     LegendNANA
09:00 Legend Double Dagger 15.5 4.1 46 27 25 64.4 97.58     LegendNANA
10:00 Legend Double Dagger 16.8 3.7 41 27 29 64.4 97.55     Clear
11:00 Legend Double Dagger 18.2 3.4 37 27 34 64.4 97.49     LegendNANA
12:00 Legend Double Dagger 18.8 1.4 31 26 32 64.4 97.44     LegendNANA
13:00 Legend Double Dagger 20.7 1.3 27 27 31 64.4 97.39     Mainly Clear
14:00 Legend Double Dagger 20.8 1.6 28 28 25 64.4 97.36     LegendNANA
15:00 Legend Double Dagger 21.0 0.1 24 29 24 64.4 97.34     LegendNANA
16:00 Legend Double Dagger 20.7 -0.4 24 31 27 64.4 97.34     Mainly Clear
17:00 Legend Double Dagger 16.4 3.2 41 5 34 64.4 97.41     LegendNANA
18:00 Legend Double Dagger 16.4 3.6 42 16 17 64.4 97.45     LegendNANA
19:00 Legend Double Dagger 14.7 3.8 48 19 9 64.4 97.52     Mainly Clear
20:00 Legend Double Dagger 13.8 3.4 49 15 6 64.4 97.55     LegendNANA
21:00 Legend Double Dagger 11.2 4.8 64 6 8 64.4 97.57     LegendNANA
22:00 Legend Double Dagger 9.4 3.2 65 7 8 64.4 97.59     Mainly Clear
23:00 Legend Double Dagger 9.7 2.9 62 36 2 64.4 97.60     LegendNANA

Notes on Data Quality.

Legend

  • E = Estimated
  • M = Missing
  • NA = Not Available
  • ‡ = Partner data that is not subject to review by the National Climate Archives
Date modified: